Location: Basse Occidentale du Courleau
(48.3833°N, 4.8333°W)
Time: 19:40:11
(UTC+00:00)

Cosmos 1340 - Pass Details

Date: 05 July 2020
Orbit: 502 x 504 km, 81.2° (Epoch: 05 August)

Event Time Altitude Azimuth Distance (km) Brightness Sun altitude
Exits shadow 23:34:22 30° 112° (ESE) 928 3.7 -18.1°
Maximum altitude 23:34:56 31° 93° (E) 895 3.7 -18.1°
Drops below altitude 10° 23:38:18 10° 30° (NNE) 1,722 6.0 -18.2°
Sets 23:40:35 0° 21° (NNE) 2,613 7.3 -18.3°
